Location: Helion Bumpstead
(52.0500°N, 0.4000°E)
Time: 20:46:43
(UTC+00:00)

COSMOS 2428 - Pass Details

Date: 15 November 2025
Orbit: 847 x 852 km, 70.9° (Epoch: 14 December)

Event Time Altitude Azimuth Distance (km) Brightness Sun altitude
Exits shadow 05:03:04 31° 314° (NW) 1,442 3.5 -20.6°
Maximum altitude 05:03:13 31° 318° (NW) 1,441 3.5 -20.6°
Drops below altitude 10° 05:08:16 10° 20° (NNE) 2,483 5.3 -19.8°
Sets 05:11:01 0° 31° (NNE) 3,422 6.2 -19.4°
